Time,TemperatureF,DewpointF,PressureIn,WindDirection,WindDirectionDegrees,WindSpeedMPH,WindSpeedGustMPH,Humidity,HourlyPrecipIn,Conditions,Clouds,dailyrainin,SolarRadiationWatts/m^2,SoftwareType,DateUTC
2017-02-27 00:00:00,30.0,18.4,30.21,WSW,239,3.4,5.8,61,0.00,,,-99.99,1.0,HOBO +U30 +Weather +,2017-02-27 05:00:00,
2017-02-27 00:15:00,29.8,18.5,30.22,SW,236,3.4,6.7,62,0.00,,,-99.99,1.0,HOBO +U30 +Weather +,2017-02-27 05:15:00,
2017-02-27 00:30:00,28.7,17.9,30.23,SW,236,1.6,4.5,63,0.00,,,-99.99,1.0,HOBO +U30 +Weather +,2017-02-27 05:30:00,
2017-02-27 00:45:00,29.6,19.2,30.23,SW,233,2.0,5.8,64,0.00,,,-99.99,1.0,HOBO +U30 +Weather +,2017-02-27 05:45:00,
2017-02-27 01:00:00,28.9,18.7,30.23,SW,226,2.0,5.4,65,0.00,,,-99.99,1.0,HOBO +U30 +Weather +,2017-02-27 06:00:00,
2017-02-27 01:15:00,29.2,19.4,30.24,SW,236,2.5,5.4,66,0.00,,,-99.99,1.0,HOBO +U30 +Weather +,2017-02-27 06:15:00,
2017-02-27 01:30:00,28.9,19.1,30.25,SW,233,2.5,4.5,66,0.00,,,-99.99,1.0,HOBO +U30 +Weather +,2017-02-27 06:30:00,
2017-02-27 01:45:00,28.9,19.3,30.25,SW,223,2.9,5.4,66,0.00,,,-99.99,1.0,HOBO +U30 +Weather +,2017-02-27 06:45:00,
2017-02-27 02:00:00,28.9,19.5,30.25,SW,223,3.4,6.3,67,0.00,,,-99.99,1.0,HOBO +U30 +Weather +,2017-02-27 07:00:00,
2017-02-27 02:15:00,28.8,19.5,30.25,SW,234,3.4,6.3,67,0.00,,,-99.99,1.0,HOBO +U30 +Weather +,2017-02-27 07:15:00,
2017-02-27 02:30:00,29.0,19.7,30.26,SW,227,4.5,8.7,67,0.00,,,-99.99,1.0,HOBO +U30 +Weather +,2017-02-27 07:30:00,
2017-02-27 02:45:00,28.8,19.5,30.26,SW,225,3.8,7.8,67,0.00,,,-99.99,1.0,HOBO +U30 +Weather +,2017-02-27 07:45:00,
2017-02-27 03:00:00,28.6,19.7,30.26,SW,219,3.8,7.8,68,0.00,,,-99.99,1.0,HOBO +U30 +Weather +,2017-02-27 08:00:00,
2017-02-27 03:15:00,28.6,19.6,30.26,SW,229,4.3,8.3,68,0.00,,,-99.99,1.0,HOBO +U30 +Weather +,2017-02-27 08:15:00,
2017-02-27 03:30:00,28.5,19.6,30.27,SW,225,4.3,7.2,69,0.00,,,-99.99,1.0,HOBO +U30 +Weather +,2017-02-27 08:30:00,
2017-02-27 03:45:00,28.5,19.7,30.27,SW,220,4.5,8.3,69,0.00,,,-99.99,1.0,HOBO +U30 +Weather +,2017-02-27 08:45:00,
2017-02-27 04:00:00,28.7,19.8,30.27,SW,230,4.5,9.6,68,0.00,,,-99.99,1.0,HOBO +U30 +Weather +,2017-02-27 09:00:00,
2017-02-27 04:15:00,28.6,19.6,30.28,SW,233,5.4,10.1,68,0.00,,,-99.99,1.0,HOBO +U30 +Weather +,2017-02-27 09:15:00,
2017-02-27 04:30:00,28.4,19.5,30.29,SW,227,4.5,8.3,68,0.00,,,-99.99,1.0,HOBO +U30 +Weather +,2017-02-27 09:30:00,
2017-02-27 04:45:00,28.6,19.8,30.29,SW,223,5.4,10.3,69,0.00,,,-99.99,1.0,HOBO +U30 +Weather +,2017-02-27 09:45:00,
2017-02-27 05:00:00,28.4,19.6,30.29,SW,225,5.4,9.2,69,0.00,,,-99.99,1.0,HOBO +U30 +Weather +,2017-02-27 10:00:00,
2017-02-27 05:15:00,28.3,19.6,30.29,SW,226,4.9,8.7,69,0.00,,,-99.99,1.0,HOBO +U30 +Weather +,2017-02-27 10:15:00,
2017-02-27 05:30:00,28.2,19.8,30.30,SW,226,5.4,10.1,70,0.00,,,-99.99,1.0,HOBO +U30 +Weather +,2017-02-27 10:30:00,
2017-02-27 05:45:00,28.0,19.7,30.31,SW,229,5.4,9.2,70,0.00,,,-99.99,1.0,HOBO +U30 +Weather +,2017-02-27 10:45:00,
2017-02-27 06:00:00,28.0,19.9,30.31,SW,229,4.9,10.1,71,0.00,,,-99.99,2.0,HOBO +U30 +Weather +,2017-02-27 11:00:00,
2017-02-27 06:15:00,28.1,20.0,30.32,SW,226,4.9,8.7,71,0.00,,,-99.99,9.0,HOBO +U30 +Weather +,2017-02-27 11:15:00,
2017-02-27 06:30:00,28.4,20.2,30.32,SW,223,5.4,10.3,70,0.00,,,-99.99,21.0,HOBO +U30 +Weather +,2017-02-27 11:30:00,
2017-02-27 06:45:00,29.5,20.7,30.33,SW,223,6.3,10.1,69,0.00,,,-99.99,76.0,HOBO +U30 +Weather +,2017-02-27 11:45:00,
2017-02-27 07:00:00,30.4,20.7,30.32,SW,225,6.3,11.2,66,0.00,,,-99.99,126.0,HOBO +U30 +Weather +,2017-02-27 12:00:00,
2017-02-27 07:15:00,31.5,20.7,30.32,SW,223,6.7,13.0,63,0.00,,,-99.99,164.0,HOBO +U30 +Weather +,2017-02-27 12:15:00,
2017-02-27 07:30:00,32.7,20.8,30.33,SW,222,6.7,11.2,61,0.00,,,-99.99,209.0,HOBO +U30 +Weather +,2017-02-27 12:30:00,
2017-02-27 07:45:00,33.8,20.9,30.34,SW,223,6.7,12.5,58,0.00,,,-99.99,252.0,HOBO +U30 +Weather +,2017-02-27 12:45:00,
2017-02-27 08:00:00,35.5,21.5,30.34,SW,227,6.7,15.0,56,0.00,,,-99.99,292.0,HOBO +U30 +Weather +,2017-02-27 13:00:00,
2017-02-27 08:15:00,37.0,21.7,30.34,SW,225,6.3,13.2,53,0.00,,,-99.99,334.0,HOBO +U30 +Weather +,2017-02-27 13:15:00,
2017-02-27 08:30:00,38.3,21.7,30.34,SW,232,7.4,13.2,50,0.00,,,-99.99,374.0,HOBO +U30 +Weather +,2017-02-27 13:30:00,
2017-02-27 08:45:00,39.2,21.6,30.35,WSW,239,7.8,16.1,49,0.00,,,-99.99,413.0,HOBO +U30 +Weather +,2017-02-27 13:45:00,
2017-02-27 09:00:00,39.7,21.5,30.35,WSW,247,7.2,13.6,47,0.00,,,-99.99,409.0,HOBO +U30 +Weather +,2017-02-27 14:00:00,
2017-02-27 09:15:00,41.0,22.1,30.35,SW,233,7.8,13.6,46,0.00,,,-99.99,459.0,HOBO +U30 +Weather +,2017-02-27 14:15:00,
2017-02-27 09:30:00,42.0,22.4,30.35,SW,223,8.3,15.4,45,0.00,,,-99.99,503.0,HOBO +U30 +Weather +,2017-02-27 14:30:00,
2017-02-27 09:45:00,44.2,23.5,30.33,SW,232,6.3,12.5,43,0.00,,,-99.99,537.0,HOBO +U30 +Weather +,2017-02-27 14:45:00,
2017-02-27 10:00:00,44.2,22.7,30.34,SW,227,8.3,15.0,42,0.00,,,-99.99,601.0,HOBO +U30 +Weather +,2017-02-27 15:00:00,
2017-02-27 10:15:00,45.5,23.4,30.34,SW,225,7.8,14.5,41,0.00,,,-99.99,527.0,HOBO +U30 +Weather +,2017-02-27 15:15:00,
2017-02-27 10:30:00,46.5,23.5,30.33,SW,232,6.7,12.5,40,0.00,,,-99.99,557.0,HOBO +U30 +Weather +,2017-02-27 15:30:00,
2017-02-27 10:45:00,48.3,24.2,30.33,SW,226,6.7,13.2,38,0.00,,,-99.99,584.0,HOBO +U30 +Weather +,2017-02-27 15:45:00,
2017-02-27 11:00:00,48.0,22.6,30.34,SW,233,8.3,15.4,36,0.00,,,-99.99,603.0,HOBO +U30 +Weather +,2017-02-27 16:00:00,
2017-02-27 11:15:00,49.0,23.3,30.34,SW,225,8.7,17.0,36,0.00,,,-99.99,618.0,HOBO +U30 +Weather +,2017-02-27 16:15:00,
2017-02-27 11:30:00,48.8,22.5,30.34,SW,232,10.1,18.6,35,0.00,,,-99.99,573.0,HOBO +U30 +Weather +,2017-02-27 16:30:00,
2017-02-27 11:45:00,49.7,22.9,30.33,WSW,240,10.1,20.8,34,0.00,,,-99.99,596.0,HOBO +U30 +Weather +,2017-02-27 16:45:00,
2017-02-27 12:00:00,50.3,23.0,30.32,WSW,250,9.6,18.3,34,0.00,,,-99.99,567.0,HOBO +U30 +Weather +,2017-02-27 17:00:00,
2017-02-27 12:15:00,50.7,22.7,30.31,SW,233,10.3,21.3,33,0.00,,,-99.99,567.0,HOBO +U30 +Weather +,2017-02-27 17:15:00,